Kosmos-1257

operational
NORAD ID: 12327 Int'l Des: 1981-022 Owner: GUKOS Country: SU
LEOCIRCULAR

关于 Kosmos-1257

正在加载描述...

实时位置

正在加载3D地球...

即将过境

高度历史

Altitude vs Time

uPlot chart will show altitude changes over time

两行轨道根数

1 12327U 81022H 26063.50977979 -.00000028 00000-0 -83956-4 0 9995
2 12327 74.0292 197.8703 0006338 93.9365 333.6612 12.47855996 49611
Epoch: Mar 4, 2026 • Age: 19 hours

当前状态

高度 1504.3 km
速度 7.11 km/s
星下点 -70.71°S, 16.02°W
发射日期 Mar 6, 1981
运行时间 44.9 years
类型 other

技术详情

分类 Payload
质量 60.00 kg
干质量 60.00 kg
总质量 60.00 kg
长度 0.80 m
直径 0.80 m
跨度 0.80 m
形状 Poly
制造商 NPOPM
平台类型 Strela-1 11F625
阶段状态 In Orbit
所有者/国家 GUKOS/SU

大型星座

Loading constellations...